Theta_e
286 290 291 290 291 292 289 288 284 289 292 305 309 310 313 317 318 319 319 320 322 324 334 334 337 341 342 340 344 346 344 344 343 345 344 339 339 345 342 347 349 352 353 351
284 290 290 288 290 292 292 294 296 295 298 307 311 312 312 314 317 317 317 319 321 324 325 329 334 339 339 343 344 347 346 345 344 345 345 344 340 340 342 340 349 348 351 353
279 287 286 281 288 292 294 299 299 296 299 302 309 308 308 310 314 316 317 318 318 321 324 327 329 337 338 336 337 337 345 348 347 345 345 345 346 342 341 340 337 347 348 350
279 281 276 284 293 299 297 298 299 299 300 301 304 306 306 309 310 312 317 316 317 318 323 327 329 328 336 341 339 338 340 343 349 348 346 345 346 346 344 344 340 338 349 350
279 278 283 288 294 294 291 294 299 296 300 301 302 305 303 308 311 311 315 318 316 319 321 323 326 327 329 335 339 339 340 337 338 349 348 347 347 347 348 347 346 343 342 347
280 278 278 286 295 299 298 288 299 300 299 299 300 293 297 305 309 311 313 317 315 317 319 320 324 324 324 324 327 328 329 332 337 335 350 349 349 349 350 350 350 351 349 348
280 279 285 292 296 299 284 286 298 299 297 297 294 298 299 305 305 309 312 315 316 314 315 318 323 320 316 320 320 324 327 331 336 336 344 352 351 351 350 350 350 351 351 351
279 278 279 293 294 288 293 296 297 298 298 296 298 300 301 302 304 307 309 313 315 314 314 316 320 320 316 314 319 322 325 329 331 335 343 353 352 352 350 350 350 349 349 351
282 282 291 292 291 293 293 292 293 294 296 297 296 298 300 300 302 304 307 311 313 314 313 316 319 318 314 315 317 319 323 326 331 333 342 353 352 351 351 351 351 350 349 349
284 287 290 291 293 293 293 292 294 295 296 297 297 297 297 299 301 303 306 309 312 311 313 314 316 318 314 314 316 318 320 324 328 325 344 351 353 353 353 352 351 351 350 350
284 288 288 292 291 293 295 294 294 295 296 295 295 295 296 297 299 301 303 307 312 311 311 314 314 314 314 313 313 315 318 322 325 326 332 349 352 353 354 355 351 352 352 352
281 287 286 287 291 294 293 293 295 293 294 295 295 294 296 296 298 299 300 305 309 310 313 314 313 312 311 311 311 312 316 319 322 324 326 333 348 347 318 322 320 319 323 342
288 291 291 292 294 296 294 295 297 296 296 295 296 297 298 299 300 300 302 304 309 314 313 311 310 308 309 309 310 311 313 317 321 322 326 327 329 337 347 333 316 312 310 314
293 292 292 293 293 295 295 296 297 297 297 296 296 297 299 300 302 301 302 305 312 312 307 307 307 306 307 307 307 310 310 312 317 320 323 327 329 331 336 347 344 342 317 314
295 295 295 294 295 296 295 298 294 294 295 295 297 297 299 300 300 301 303 308 310 304 304 304 303 304 306 306 307 307 308 312 316 319 323 324 327 328 333 343 347 346 330 313
297 297 296 295 295 296 295 296 292 294 295 295 295 297 301 302 303 305 307 307 304 300 300 301 301 302 305 304 304 305 307 311 314 317 321 322 326 327 326 330 340 343 341 339
294 292 294 294 294 294 294 294 296 296 295 295 298 299 301 303 303 303 303 304 302 300 299 298 302 301 301 303 302 303 306 307 315 318 321 323 319 317 317 324 331 332 325 328
297 297 297 295 295 295 295 296 297 297 295 297 298 297 298 299 299 300 300 301 299 299 299 300 303 301 299 300 301 301 301 302 307 308 312 314 312 311 312 311 314 318 316 313
299 299 298 298 297 297 296 295 296 298 298 298 296 294 295 298 298 298 299 298 298 297 298 300 302 300 296 301 301 298 299 299 300 303 305 307 307 306 305 307 306 307 310 309
299 300 299 299 299 298 297 297 297 298 298 298 297 297 296 297 298 298 298 296 297 299 301 300 298 298 298 299 300 296 298 297 298 298 299 299 301 302 301 300 302 302 304 305
298 300 300 298 297 299 299 299 297 297 297 298 297 296 296 297 297 297 296 295 298 301 300 301 299 298 298 297 296 295 295 295 294 294 294 294 295 296 296 297 297 297 298 299
298 300 299 298 297 296 298 298 298 298 297 297 298 297 296 296 297 296 298 297 299 301 300 299 299 300 299 298 295 294 294 293 293 293 292 293 292 292 292 293 294 294 293 294
298 295 298 299 297 295 298 298 298 299 297 297 297 296 295 294 294 291 292 298 300 300 299 299 300 300 299 296 295 294 294 293 292 292 292 292 292 291 291 291 291 293 293 292
300 299 298 298 296 295 295 296 297 298 299 299 298 298 297 296 297 298 298 300 301 301 300 300 299 300 299 296 295 294 294 293 293 292 292 292 292 291 291 291 290 290 290 290
295 296 294 295 295 294 295 296 297 297 298 299 298 299 300 300 298 299 300 299 301 300 300 301 302 300 297 296 295 295 294 293 293 293 293 293 292 292 291 291 291 291 290 290
292 294 295 297 297 296 296 295 294 297 297 296 299 299 300 299 299 300 299 300 299 300 298 298 299 298 297 296 295 295 294 294 295 294 293 293 293 292 292 292 292 291 291 291
295 295 294 296 296 297 297 295 295 294 296 294 294 296 299 300 299 300 300 299 298 298 298 299 298 299 297 296 296 296 296 295 294 294 294 293 293 292 293 292 292 291 291 291
Wind_Speed
0 6 5 10 12 10 6 6 1 10 14 6 7 12 14 15 15 17 16 17 16 18 11 6 4 5 7 6 7 13 16 16 19 16 16 15 16 14 11 9 10 8 10 8
4 4 8 8 8 6 6 8 7 7 2 7 3 8 16 15 15 15 15 16 15 14 14 15 16 3 2 2 7 15 17 19 16 16 15 15 15 16 14 14 10 9 10 10
3 4 8 6 7 10 5 10 5 7 8 13 6 11 12 12 14 14 13 13 11 11 12 13 13 12 7 6 6 7 4 13 15 14 15 16 15 16 16 16 15 13 12 13
3 4 2 7 5 7 14 13 12 9 13 13 9 3 11 13 11 10 6 6 10 13 14 10 12 14 12 4 1 3 4 3 7 13 17 15 16 16 17 14 16 14 13 13
5 4 5 3 8 7 7 5 13 12 11 11 14 5 6 14 13 10 8 8 5 5 9 11 12 11 10 7 4 2 2 2 7 11 16 16 17 18 17 15 14 15 14 14
3 4 6 1 10 10 5 4 9 14 12 14 10 4 4 9 12 11 9 3 7 8 8 7 8 10 12 13 13 8 8 11 7 10 17 19 19 18 17 15 15 12 14 15
2 4 1 5 11 9 2 3 12 8 8 10 5 4 8 9 9 9 10 6 8 7 10 10 7 9 11 9 7 11 9 12 7 11 21 19 19 16 16 16 14 14 14 14
3 2 6 5 3 1 4 5 6 8 11 13 13 14 13 13 10 8 12 10 5 8 8 10 8 6 8 11 9 11 11 8 6 20 17 16 18 16 16 15 15 14 13 11
7 6 4 0 3 1 3 8 6 8 10 12 13 14 13 12 13 10 8 9 7 4 8 8 7 5 8 10 12 11 11 10 7 12 14 14 15 16 13 14 13 12 11 11
2 3 6 7 4 2 3 8 13 10 11 13 14 11 14 14 11 10 9 6 5 6 5 9 6 5 4 8 10 13 11 11 9 10 9 10 10 12 12 12 12 11 11 11
5 7 2 6 5 6 6 6 11 12 13 14 15 14 13 13 16 10 10 6 5 7 7 7 4 7 6 8 8 11 10 10 10 7 9 6 10 12 14 15 15 14 12 11
7 6 5 7 5 6 6 6 10 13 15 14 15 18 13 14 14 15 10 8 6 7 8 3 4 8 8 8 9 10 12 9 7 8 7 7 5 5 4 5 14 14 15 13
6 6 7 6 7 7 7 8 10 12 14 17 16 15 16 15 14 18 14 12 10 9 6 1 2 5 6 10 10 10 10 9 7 7 6 6 6 6 7 1 2 9 14 16
6 3 6 8 10 7 7 9 9 11 13 14 14 15 14 14 11 14 17 11 8 4 2 3 5 7 7 8 9 9 8 12 7 7 6 6 6 6 6 4 6 5 7 9
9 10 12 6 6 9 7 8 7 11 13 14 13 14 14 14 14 15 17 9 3 6 4 4 4 6 7 9 8 10 7 6 6 6 7 6 4 5 5 7 6 5 3 1
10 9 9 9 12 12 8 6 5 12 12 13 13 14 15 19 16 13 9 5 6 6 4 4 4 5 7 7 7 8 7 12 9 5 5 5 4 5 6 6 5 5 6 4
4 5 6 7 9 8 6 5 6 9 11 12 11 14 11 9 11 8 6 6 8 9 3 2 4 3 6 6 6 6 4 5 10 4 4 4 3 5 6 6 4 7 7 3
6 6 6 6 5 4 5 6 5 6 9 11 10 13 13 11 6 8 8 6 7 9 6 5 6 6 6 7 4 5 4 4 5 5 5 5 5 6 7 7 8 8 8 11
5 5 5 6 5 5 4 5 3 3 8 7 8 8 11 11 7 6 7 7 7 9 8 7 10 8 6 9 7 4 5 5 4 6 6 8 7 8 11 9 8 8 7 9
3 4 3 4 3 5 5 4 1 1 5 6 6 5 3 5 6 5 7 9 11 7 7 6 5 6 7 9 11 6 7 6 5 6 8 7 7 9 9 9 8 8 8 8
2 4 7 4 5 6 6 5 4 3 4 5 4 5 4 4 6 7 8 8 7 7 7 11 7 5 5 8 9 7 5 6 6 7 7 7 7 9 8 8 8 9 8 7
6 6 8 6 7 3 6 5 5 5 3 1 4 3 4 4 4 5 6 6 4 11 5 5 4 14 10 13 7 6 6 6 6 8 8 8 8 8 8 8 8 8 7 7
4 3 3 6 6 4 6 6 6 6 5 5 4 3 2 2 3 3 4 6 4 7 5 7 15 16 16 9 8 7 7 8 9 9 8 8 8 9 8 8 8 8 8 6
4 6 2 4 1 2 5 6 5 6 6 5 5 5 4 2 2 4 4 5 6 6 4 5 13 18 14 7 7 7 7 7 9 9 9 11 8 8 8 8 8 8 8 11
3 2 3 5 3 1 4 5 4 4 4 4 6 5 7 5 3 3 4 4 7 6 4 5 6 10 6 6 7 6 5 7 7 7 8 8 8 7 8 8 9 7 7 8
3 1 3 6 5 1 3 4 2 3 3 3 3 4 4 3 3 3 4 8 5 5 5 4 3 5 3 4 6 5 4 5 5 7 8 8 8 7 7 8 7 5 7 6
4 5 4 5 1 3 3 4 2 1 2 1 1 3 4 4 4 5 4 4 4 6 3 2 2 4 3 3 2 2 3 3 4 4 6 6 4 4 6 5 5 5 5 5
Wind_Direction
229 300 315 317 325 342 345 311 351 304 325 58 57 74 66 75 51 40 42 35 17 12 5 9 356 275 259 193 189 196 200 202 205 200 197 200 205 209 208 208 214 190 200 201
355 340 339 325 311 307 329 4 335 324 165 349 338 79 64 60 63 44 30 26 17 11 359 1 339 3 27 337 214 195 195 207 209 197 196 197 201 206 207 212 215 206 196 198
297 330 334 23 27 3 52 43 345 41 6 345 31 43 45 46 52 44 27 19 358 2 352 18 349 348 7 18 45 60 188 216 206 210 203 200 196 200 206 213 217 219 216 209
192 14 310 243 2 60 73 46 34 14 10 6 6 64 55 38 40 40 31 346 12 359 355 1 355 4 338 257 185 51 14 302 268 217 207 205 200 202 207 206 211 213 215 218
145 196 286 3 22 354 72 2 3 347 347 6 339 245 21 21 24 22 2 332 338 357 352 350 359 349 346 350 221 261 321 309 325 245 220 201 203 206 206 205 208 213 213 211
141 166 233 10 314 325 262 229 3 354 4 359 2 37 310 349 1 358 353 295 338 3 358 354 4 348 333 350 20 20 323 300 287 331 228 209 205 204 205 206 210 208 215 215
249 234 228 317 319 300 167 250 322 328 339 343 343 308 297 323 340 335 334 4 7 314 359 355 3 16 342 328 348 316 304 297 307 313 275 215 210 203 202 206 209 209 213 213
7 277 257 335 21 66 316 296 323 334 330 322 319 318 319 321 328 329 330 344 11 340 344 343 358 355 338 330 333 318 306 306 266 265 269 214 209 204 203 204 207 211 213 214
172 219 131 243 158 245 304 300 301 305 299 292 297 297 313 317 319 314 315 318 322 341 329 340 328 347 345 319 323 316 295 279 271 284 262 217 207 201 199 201 203 207 209 216
40 212 177 176 188 204 295 298 300 289 286 290 288 294 299 298 299 308 303 287 301 318 344 306 314 320 303 314 328 314 313 306 310 305 286 209 203 201 198 198 203 205 209 216
251 281 292 176 178 202 265 266 296 301 293 291 289 279 273 278 291 288 294 286 291 308 292 277 326 311 320 326 331 314 313 320 334 321 343 299 213 200 199 202 199 200 205 208
227 209 187 225 231 229 242 274 308 304 300 287 281 282 277 272 273 280 277 282 272 263 276 296 354 316 321 332 325 319 326 336 327 322 345 337 301 235 61 231 204 205 199 201
224 196 215 247 251 252 252 264 300 300 292 296 287 276 271 265 251 262 264 256 234 231 195 208 291 312 326 331 319 313 320 319 315 304 318 320 329 320 219 264 119 218 220 216
201 133 289 246 255 251 227 249 284 309 300 290 287 285 277 272 271 265 266 260 256 195 96 32 348 331 326 309 308 305 305 298 305 309 302 314 296 297 299 240 201 203 218 228
219 202 225 247 277 273 236 257 297 316 306 302 301 290 281 269 255 253 255 250 158 103 55 30 346 324 314 303 305 304 305 296 297 293 283 273 306 320 309 283 225 204 139 96
230 222 234 241 263 272 258 263 294 311 314 313 301 301 299 286 246 232 209 160 143 94 51 16 336 302 301 310 318 301 291 298 289 274 288 304 346 349 339 320 274 213 189 178
163 261 253 262 264 269 240 243 271 311 323 325 328 311 337 354 84 84 95 99 107 88 70 0 341 327 307 327 306 280 304 321 344 0 320 355 32 29 5 1 352 60 37 55
206 223 219 216 253 246 256 251 277 317 330 342 5 354 3 12 18 79 74 83 89 72 26 10 350 9 345 318 327 304 330 330 0 2 352 9 1 51 33 18 18 42 53 43
228 224 255 220 214 200 206 243 280 321 330 353 5 31 1 20 10 28 68 71 73 61 33 18 15 14 342 341 8 338 8 11 340 33 14 4 22 35 42 10 25 27 43 64
233 211 293 228 258 165 204 230 350 100 338 359 351 336 75 16 354 30 61 56 52 40 16 47 22 16 13 7 26 14 26 30 19 47 34 23 26 43 54 22 19 42 32 32
302 283 286 290 280 197 179 169 140 120 17 355 353 15 10 356 22 19 37 46 34 36 38 39 51 30 36 43 37 31 26 42 37 56 49 37 33 47 41 51 34 28 50 31
215 235 231 247 230 166 176 169 148 141 126 279 299 318 331 9 31 24 25 38 16 37 33 30 44 58 54 54 50 41 44 58 62 61 53 51 43 50 40 46 47 40 42 36
315 299 268 261 188 190 167 176 171 163 187 208 245 293 18 347 332 36 36 2 16 25 32 49 45 47 51 51 47 41 42 46 60 62 59 57 56 58 51 49 47 49 41 43
39 327 20 37 24 136 153 187 188 188 204 218 221 212 232 258 322 318 324 357 12 352 357 54 60 43 37 40 52 40 41 49 61 63 62 58 58 59 60 55 55 47 42 44
49 164 25 43 52 51 176 149 181 196 214 233 246 248 233 231 226 229 273 303 315 335 344 357 68 72 44 44 43 33 45 50 58 66 66 66 67 65 62 61 55 53 58 56
356 28 201 104 61 61 265 144 174 207 177 230 252 244 247 242 197 230 206 227 242 278 333 29 95 84 77 66 73 50 35 59 67 73 75 69 60 64 63 68 66 61 60 54
32 28 356 53 23 35 22 81 81 232 202 162 266 293 262 264 255 258 205 262 220 167 190 340 85 137 125 104 68 86 59 12 49 69 68 75 80 91 94 97 104 93 90 88